Regional Weather Roundup
Issued by NWS Newport/Morehead, NC

Current Version | Previous Version | Graphics & Text | Print | Product List | Glossary Off
Versions: 1 2 3 4 5 6 7 8 9 10 11 12 13 14 15 16 17 18 19 20 21 22 23 24 25 26 27 28 29 30 31 32 33 34 35 36 37 38 39 40 41 42 43 44 45 46 47 48 49 50

000
ASUS42 KMHX 070425
RWRMHX
WEATHER ROUNDUP FOR EASTERN NORTH CAROLINA
NATIONAL WEATHER SERVICE NEWPORT/MOREHEAD CITY NC
1200 AM EDT TUE JUL 07 2015

NOTE: "FAIR" INDICATES FEW OR NO CLOUDS BELOW 12,000 FEET
WITH NO SIGNIFICANT WEATHER AND/OR OBSTRUCTIONS TO VISIBILITY

NCZ015>017-031-032-045>047-102-103-070500-
NORTH COAST

CITY           SKY/WX    TMP DP  RH WIND       PRES   REMARKS
EDENTON        CLEAR     76  72  85 S7        30.09S
ELIZABETH CITY CLEAR     77  72  84 S8        30.08F
KITTY HAWK     CLEAR     78  72  82 SW8       30.09S
MANTEO         CLEAR     78  73  84 SW12      30.11S

$$

NCZ045>047-081-094-103-104-070500-
CENTRAL COAST

CITY           SKY/WX    TMP DP  RH WIND       PRES   REMARKS
FRISCO         PTCLDY    77  75  93 SW8       30.13R
SWANQUARTER      N/A     81 N/A N/A SW15      30.06S

$$

NCZ095-097-098-100-101-070500-
SOUTHERN COAST

CITY           SKY/WX    TMP DP  RH WIND       PRES   REMARKS
BEAUFORT       PTCLDY    79  76  90 SW14      30.11S
CEDAR ISLAND     N/A     79 N/A N/A S8        30.15S
JACKSONVILLE   CLEAR     77  73  87 CALM      30.10S
PINEY ISLAND   CLEAR    N/A N/A N/A S5        30.11R
WILMINGTON     CLEAR     77  74  90 SW3       30.10S


$$

NCZ011>013-027>030-043-044-078>080-089-090>093-098-070500-
COASTAL PLAIN

CITY           SKY/WX    TMP DP  RH WIND       PRES   REMARKS
AHOSKIE        PTCLDY    75  71  86 S3        30.08S
CLINTON        CLEAR     74  71  91 CALM      30.10S
ELIZABETHTOWN  CLEAR     75  73  92 S3        30.10S
GOLDSBORO      PTCLDY    76  70  80 CALM      30.08R
GREENVILLE     CLEAR     77  72  83 SW7       30.11R
HAVELOCK       CLEAR     77  74  90 SW6       30.12R
KENANSVILLE    CLEAR     73  68  83 CALM      30.11S
KINSTON        CLEAR     75  68  80 SW5       30.11R
NEW BERN       CLEAR     76  73  91 S6        30.11S
RICHLANDS      CLEAR     72  64  78 CALM      30.11S
ROCKY MOUNT    CLEAR     78  72  81 S6        30.09R
WASHINGTON     CLEAR     76  73  90 S6        30.11R
WHITEVILLE     CLEAR     75  72  89 CALM      30.10S

$$

AMZ130-135-150-152-154-156-158-170-250-252-270-ANZ085-086-088-633-658-670-070500-
MARINE OBSERVATIONS

STATION/POSITION TIME  TEMP    WIND        PRES    WAVE   SWELL
                       AIR SEA DIR/SP/G            HT/PER HT/PER
                 (UTC) (F)     (DEG/KT/KT) (MB)    (FT/S) (FT/S)
CHESAPEAKE LIGHT 0400   78     200/ 16/ 17 1019.0
64 E VA BEACH    0350   78 77  180/ 12/ 14 1018.8    3/ 9   2/ 9
DUCK             0400   79 72  200/ 12/ 16   N/A
2 E DUCK         0311      76                N/A     3/ 4   2/13
OREGON INLET     0400   81 83  210/ 15/ 18 1019.5
13E OREGON INLT  0400      78                N/A     3/ 8   2/13
HATTERAS CG      0400   80 81  200/  5/  8 1019.7
DIAMOND BUOY     0350   81 81  200/ 16/ 17 1019.7    4/ 4   2/ 9
CAPE LOOKOUT     0400   80     220/  8/ 10 1019.6
BEAUFORT LAB     0400   80 82  220/  9/ 13 1018.9
30 SE NEW RVR IN NOT AVBL
27 SE WRIGHTSVLE 0400      80  230/ 10/ 12   N/A
5 SE WRIGHTSVLE  NOT AVBL
225 S CAPE HAT   0350   82 80  200/ 12/ 14 1021.8    4/ 8   3/ 8
41 SE CHARLESTON 0350   81 83  200/ 14/ 16 1019.1    3/ 8   2/ 8

$$


USA.gov is the U.S. government's official web portal to all federal, state and local government web resources and services.